DW3420 Weather Reports


time (UTC)temp
F
wind
direction
speed
knots
gust
knots
rain 1hr
in
rain 24hr
in
rain mn
in
humidity
%
barometer
mb
20260504110512 55 56 0.9 7.0 0.00 0.00 0.00 67 1014.1
20260504100519 53 207 1.7 2.6 0.00 0.00 0.00 70 1013.8
20260504081508 54 218 0.9 2.6 0.00 0.00 0.00 66 1013.9
20260504081022 54 183 1.7 2.6 0.00 0.00 0.00 67 1013.9
20260504080512 54 179 0.9 2.6 0.00 0.00 0.00 66 1013.9
20260504050509 53 202 0.0 0.0 0.00 0.00 0.00 67 1015.2
20260504050019 53 202 0.0 1.7 0.00 0.00 0.00 67 1015.2
20260504045534 54 202 0.9 1.7 0.00 0.00 0.00 67 1015.2
20260504045042 54 202 0.0 0.9 0.00 0.00 0.00 65 1015.2
20260504044531 54 202 0.0 0.9 0.00 0.00 0.00 65 1015.1
20260504044020 53 202 0.0 0.9 0.00 0.00 0.00 66 1015.1
20260504043510 53 202 0.0 0.9 0.00 0.00 0.00 67 1015.1
20260504043021 53 202 0.0 1.7 0.00 0.00 0.00 65 1015.0
20260504042512 53 202 0.0 1.7 0.00 0.00 0.00 67 1015.0
20260504042021 53 203 0.9 2.6 0.00 0.00 0.00 68 1014.9
20260504041511 53 212 0.9 2.6 0.00 0.00 0.00 67 1014.8
20260504041021 53 149 0.9 1.7 0.00 0.00 0.00 69 1014.8
20260504040515 53 149 0.9 2.6 0.00 0.00 0.00 69 1014.9
20260504040045 53 206 0.9 1.7 0.00 0.00 0.00 67 1015.0
20260504035514 53 205 0.9 1.7 0.00 0.00 0.00 67 1015.1
20260504035024 53 206 0.9 1.7 0.00 0.00 0.00 67 1015.2
20260504034514 53 205 0.9 1.7 0.00 0.00 0.00 67 1015.2
20260504034025 53 205 0.9 1.7 0.00 0.00 0.00 66 1015.3
20260504033516 53 206 0.9 1.7 0.00 0.00 0.00 66 1015.4
20260504033028 53 205 0.0 1.7 0.00 0.00 0.00 65 1015.4
20260504032517 53 206 0.9 1.7 0.00 0.00 0.00 65 1015.5
20260504032006 53 205 0.9 1.7 0.00 0.00 0.00 65 1015.6
20260504031520 53 205 0.0 0.9 0.00 0.00 0.00 65 1015.6
20260504031010 53 206 0.9 1.7 0.00 0.00 0.00 67 1015.6
20260504030520 53 205 0.9 1.7 0.00 0.00 0.00 66 1015.7
20260504030010 53 205 0.0 2.6 0.00 0.00 0.00 64 1015.7
20260504025520 53 205 0.9 2.6 0.00 0.00 0.00 66 1015.7
20260504025010 53 205 0.9 1.7 0.00 0.00 0.00 65 1015.6
20260504024520 53 205 0.0 1.7 0.00 0.00 0.00 64 1015.6
20260504024030 53 206 0.0 1.7 0.00 0.00 0.00 63 1015.6
20260504023518 53 206 0.0 1.7 0.00 0.00 0.00 65 1015.6
20260504023029 53 206 0.0 0.9 0.00 0.00 0.00 64 1015.6
20260504022523 53 205 0.0 0.0 0.00 0.00 0.00 63 1015.6
20260504022017 53 206 0.0 0.9 0.00 0.00 0.00 62 1015.6
20260504021547 53 205 0.0 0.9 0.00 0.00 0.00 64 1015.5
20260504021016 54 206 0.0 0.0 0.00 0.00 0.00 63 1015.4
20260504020525 54 206 0.0 0.0 0.00 0.00 0.00 61 1015.4
20260504020015 54 206 0.0 0.0 0.00 0.00 0.00 62 1015.3
20260504015525 54 205 0.0 0.0 0.00 0.00 0.00 63 1015.3
20260504015015 54 206 0.0 0.0 0.00 0.00 0.00 64 1015.2
20260504014527 54 206 0.0 0.0 0.00 0.00 0.00 64 1015.2
20260504014017 54 206 0.0 0.0 0.00 0.00 0.00 64 1015.0
20260504013511 54 206 0.0 0.0 0.00 0.00 0.00 63 1014.9
20260504013021 55 205 0.0 0.0 0.00 0.00 0.00 61 1014.9
20260504012511 55 206 0.0 0.0 0.00 0.00 0.00 63 1014.8
20260504012023 55 205 0.0 0.9 0.00 0.00 0.00 61 1014.9
20260504011513 55 205 0.0 0.9 0.00 0.00 0.00 62 1014.8
20260504011023 55 205 0.0 0.9 0.00 0.00 0.00 61 1014.8
20260504010534 56 206 0.9 0.9 0.00 0.00 0.00 59 1014.8
20260504010020 56 206 0.0 0.9 0.00 0.00 0.00 60 1014.8
20260504005511 56 206 0.0 0.9 0.00 0.00 0.00 61 1014.9
20260504005041 56 206 0.0 0.9 0.00 0.00 0.00 60 1014.9
20260504004514 57 206 0.0 0.9 0.00 0.00 0.00 59 1014.9
20260504004024 57 206 0.0 0.9 0.00 0.00 0.00 60 1014.8
20260504003514 58 206 0.0 0.9 0.00 0.00 0.00 60 1014.8
20260504003026 58 206 0.0 0.9 0.00 0.00 0.00 61 1014.8
20260504002515 59 206 0.0 0.9 0.00 0.00 0.00 60 1014.8
20260504002026 59 205 0.0 1.7 0.00 0.00 0.00 60 1014.8
20260504001515 60 206 0.0 0.9 0.00 0.00 0.00 58 1014.9
20260504001026 60 205 0.0 0.9 0.00 0.00 0.00 59 1014.9
20260504000519 60 205 0.0 0.0 0.00 0.00 0.00 54 1014.9
20260504000009 61 205 0.0 0.9 0.00 0.00 0.00 52 1014.9
20260503235519 61 205 0.0 0.9 0.00 0.00 0.00 51 1014.9
20260503235010 61 205 0.0 1.7 0.00 0.00 0.00 50 1014.9
20260503234519 61 206 0.0 2.6 0.00 0.00 0.00 48 1014.9
20260503234008 61 11 0.0 2.6 0.00 0.00 0.00 51 1015.0
20260503233518 62 11 0.9 2.6 0.00 0.00 0.00 48 1015.0
20260503233007 62 11 0.0 1.7 0.00 0.00 0.00 50 1014.9
20260503232517 62 11 0.9 1.7 0.00 0.00 0.00 48 1015.0
20260503232012 62 161 0.9 1.7 0.00 0.00 0.00 47 1015.1
20260503231522 62 160 0.9 1.7 0.00 0.00 0.00 48 1015.1
20260503231031 62 213 0.0 2.6 0.00 0.00 0.00 47 1015.1
20260503230520 63 132 0.9 2.6 0.00 0.00 0.00 46 1015.1
20260503230011 63 192 0.9 2.6 0.00 0.00 0.00 46 1015.2
20260503225520 63 191 1.7 2.6 0.00 0.00 0.00 44 1015.2
20260503225030 63 233 0.9 2.6 0.00 0.00 0.00 48 1015.2
20260503224542 63 261 0.9 2.6 0.00 0.00 0.00 44 1015.2
20260503224030 63 186 0.9 2.6 0.00 0.00 0.00 44 1015.1
20260503223519 63 223 1.7 2.6 0.00 0.00 0.00 44 1015.2
20260503223009 63 296 0.9 2.6 0.00 0.00 0.00 45 1015.2
20260503222523 63 285 0.9 3.5 0.00 0.00 0.00 45 1015.2
20260503222013 63 218 1.7 4.3 0.00 0.00 0.00 44 1015.3
20260503221523 63 159 1.7 4.3 0.00 0.00 0.00 44 1015.4
20260503221013 63 263 0.9 4.3 0.00 0.00 0.00 45 1015.4
20260503220523 63 184 1.7 3.5 0.00 0.00 0.00 45 1015.4
20260503220013 64 284 1.7 3.5 0.00 0.00 0.00 43 1015.4
20260503215524 64 312 1.7 3.5 0.00 0.00 0.00 44 1015.5
20260503215035 64 355 1.7 2.6 0.00 0.00 0.00 41 1015.6
20260503214524 64 300 0.9 3.5 0.00 0.00 0.00 44 1015.6
20260503214019 64 301 0.9 3.5 0.00 0.00 0.00 40 1015.7
20260503213529 64 207 0.9 3.5 0.00 0.00 0.00 40 1015.8
20260503213019 64 218 1.7 3.5 0.00 0.00 0.00 39 1015.8
20260503212510 64 216 0.9 3.5 0.00 0.00 0.00 39 1015.9
20260503212020 64 197 1.7 2.6 0.00 0.00 0.00 40 1015.9
20260503211509 65 223 1.7 2.6 0.00 0.00 0.00 40 1015.9
20260503211020 65 17 1.7 3.5 0.00 0.00 0.00 41 1015.9
20260503210511 65 225 0.9 2.6 0.00 0.00 0.00 41 1016.1
20260503210019 65 294 1.7 3.5 0.00 0.00 0.00 41 1016.0
20260503205530 66 221 1.7 3.5 0.00 0.00 0.00 42 1016.1
20260503205023 65 259 0.9 3.5 0.00 0.00 0.00 41 1016.1
20260503204514 66 298 1.7 3.5 0.00 0.00 0.00 42 1016.2
20260503204026 66 327 1.7 3.5 0.00 0.00 0.00 44 1016.2
20260503203536 66 306 2.6 3.5 0.00 0.00 0.00 42 1016.3
20260503203044 66 291 1.7 3.5 0.00 0.00 0.00 43 1016.3
20260503202532 66 28 1.7 3.5 0.00 0.00 0.00 46 1016.4
20260503202021 66 324 1.7 3.5 0.00 0.00 0.00 45 1016.5
20260503201512 66 284 1.7 3.5 0.00 0.00 0.00 44 1016.7
20260503201023 66 285 0.9 5.2 0.00 0.00 0.00 46 1016.8
20260503200515 66 186 2.6 3.5 0.00 0.00 0.00 48 1016.8
20260503200009 66 335 1.7 5.2 0.00 0.00 0.00 48 1016.9
20260503195519 66 317 2.6 4.3 0.00 0.00 0.00 47 1016.9
20260503195008 66 344 1.7 3.5 0.00 0.00 0.00 45 1017.1
20260503194519 66 229 1.7 3.5 0.00 0.00 0.00 45 1017.2
20260503194009 66 272 1.7 4.3 0.00 0.00 0.00 44 1017.2
20260503193539 66 355 1.7 4.3 0.00 0.00 0.00 47 1017.3
20260503193007 66 149 1.7 4.3 0.00 0.00 0.00 46 1017.4
20260503192518 66 299 1.7 5.2 0.00 0.00 0.00 48 1017.6
20260503192008 66 107 0.9 4.3 0.00 0.00 0.00 46 1017.5
20260503191538 66 224 2.6 4.3 0.00 0.00 0.00 45 1017.7
20260503191029 66 350 1.7 3.5 0.00 0.00 0.00 47 1017.7
20260503190521 65 35 1.7 3.5 0.00 0.00 0.00 44 1017.8
20260503190008 65 196 1.7 4.3 0.00 0.00 0.00 46 1017.9
20260503185521 65 257 2.6 6.1 0.00 0.00 0.00 45 1017.9
20260503185010 65 300 0.9 6.1 0.00 0.00 0.00 49 1017.9
20260503184521 65 313 1.7 3.5 0.00 0.00 0.00 44 1018.0
20260503184011 65 303 1.7 3.5 0.00 0.00 0.00 46 1017.9
20260503183541 64 148 0.9 3.5 0.00 0.00 0.00 48 1018.0
20260503183010 64 135 1.7 6.1 0.00 0.00 0.00 51 1018.0
20260503182540 64 299 2.6 6.1 0.00 0.00 0.00 50 1018.1
20260503182047 64 302 1.7 4.3 0.00 0.00 0.00 49 1018.2
20260503181516 63 177 0.9 7.0 0.00 0.00 0.00 49 1018.2
20260503181010 63 342 1.7 7.0 0.00 0.00 0.00 50 1018.3
20260503180520 63 250 2.6 4.3 0.00 0.00 0.00 47 1018.3
20260503180031 63 297 1.7 3.5 0.00 0.00 0.00 52 1018.3
20260503175540 63 194 1.7 3.5 0.00 0.00 0.00 47 1018.4
20260503175009 62 325 1.7 3.5 0.00 0.00 0.00 49 1018.5
20260503174519 62 312 0.9 3.5 0.00 0.00 0.00 50 1018.5
20260503174009 62 308 1.7 4.3 0.00 0.00 0.00 49 1018.5
20260503173541 62 229 2.6 4.3 0.00 0.00 0.00 49 1018.6
20260503173010 62 148 0.9 4.3 0.00 0.00 0.00 48 1018.6
20260503172520 62 289 1.7 2.6 0.00 0.00 0.00 51 1018.8
20260503172016 62 274 1.7 4.3 0.00 0.00 0.00 48 1018.8
20260503171525 62 346 1.7 4.3 0.00 0.00 0.00 48 1018.9
20260503171015 62 314 1.7 2.6 0.00 0.00 0.00 49 1018.9
20260503170525 62 144 0.9 3.5 0.00 0.00 0.00 49 1019.0
20260503150510 53 243 0.9 2.6 0.00 0.00 0.00 65 1019.4
20260503131036 47 289 0.9 2.6 0.00 0.00 0.00 84 1019.0
20260503130525 46 344 0.0 2.6 0.00 0.00 0.00 85 1018.8